Weather in Holm-Zgirkovskiy

Russia / Smolensk Oblast     55°30′36″N   33°29′22″E
temp.,
°C
wind,
m/s
gust,
m/s
humid.,
%
clouds,
%
prec.,
mm/h
press.,
hPa
HPBL,
m
18 may, tue
tue1800:00+17ese512884 0.0 1005347
03:00+16ese4109392 0.0 1004269
06:00+16se41294100 2.2 1004391
09:00+20sse598098 2.2 1004505
12:00+23sse586690 1.3 10041450
15:00+26se61253100 2.1 10032741
18:00+23se61157100 0.0 1002967
21:00+18e4127860 0.1 1002305
19 may, wed
wed1900:00+17se715835 0.3 1002739
03:00+13se499369 0.3 1003270
06:00+14se41090100 0.1 1002401
09:00+16sse6108363 0.1 1004751
12:00+20sse6965100 1.0 10041597
15:00+19sse696671 1.8 10051421
18:00+18sse4777100 1.2 1005744
21:00+15se3589100 2.2 1005102
20 may, thu
thu2000:00+14sse2392100 0.0 100569
03:00+14nw1194100 0.1 100425
06:00+13n3697100 0.6 1002209
09:00+15ese588356 3.2 1001861
12:00+14ese6883100 0.6 1001836
15:00+12ese269399 1.9 1001525
18:00+12w2495100 0.9 1002335
21:00+10wnw71295100 1.3 1005771
21 may, fri
fri2100:00+9wnw61293100 0.1 1008704
03:00+9wnw51192100 0.1 1011767
06:00+8wnw4119392 0.0 1013407
09:00+13wnw467611 0.0 1014769
12:00+16wnw464980 0.0 10141510
15:00+17w4545100 0.0 10141959
18:00+17w465568 0.0 1015874
21:00+10w387513 0.0 1017129
22 may, sat
sat2200:00+8w22821 0.0 101826
03:00+7wnw118511 0.0 101810
06:00+8ene00815 0.0 101918
09:00+14se11585 0.0 1019475
12:00+17sse344687 0.0 10181486
15:00+19ssw35465 0.0 10172018
18:00+18sse345996 0.0 1016839
21:00+13sse378085 0.0 101699